Regional Weather Roundup
Issued by NWS Cleveland, OH

Home | Current Version | Previous Version | Graphics & Text | Print | Product List | Glossary On
Versions: 1 2 3 4 5 6 7 8 9 10 11 12 13 14 15 16 17 18 19 20 21 22 23 24 25 26 27 28 29 30 31 32 33 34 35 36 37 38 39 40 41 42 43 44 45 46 47 48 49 50
732
ASUS41 KCLE 232300
RWRCLE
OHIO REGIONAL WEATHER ROUNDUP
NATIONAL WEATHER SERVICE WILMINGTON, OH
700 PM EDT MON APR 23 2018

NOTE: "FAIR" INDICATES FEW OR NO CLOUDS BELOW 12,000 FEET WITH NO
SIGNIFICANT WEATHER AND/OR OBSTRUCTIONS TO VISIBILITY.

OHZ001>008-015>018-024>027-034-035-043-044-240000-
   NORTHWEST OHIO

CITY           SKY/WX    TMP DP  RH WIND       PRES   REMARKS
DEFIANCE       CLOUDY    58  52  80 S12G17    30.14S
FINDLAY        PTSUNNY   59  45  59 S22G28    30.15F
TOLEDO EXPRESS CLOUDY    62  52  69 S13G22    30.16R
TOLEDO EXEC    PTSUNNY   61  50  67 S16       30.17R
LIMA           CLOUDY    55  48  77 SE17      30.15F
$$

OHZ009>014-019>023-028>033-038-089-240000-
   NORTHEAST OHIO

CITY           SKY/WX    TMP DP  RH WIND       PRES   REMARKS
CLE-HOPKINS    CLOUDY    71  39  31 S8        30.16S
CLE-LAKEFRONT  FAIR      71  36  27 SE9       30.12F
CUY CO. ARPT   CLOUDY    73  39  29 S14       30.15F
LORAIN-ELYRIA  FAIR      68  38  33 VRB6      30.14F
ASHTABULA      FAIR      70  36  28 S13       30.17F
AKRON-CANTON   CLOUDY    66  36  32 SW14      30.16S
WOOSTER        NOT AVBL
MANSFIELD      CLOUDY    55  47  74 S10       30.19S
YOUNGSTOWN     CLOUDY    68  35  29 SE12      30.17S
$$

OHZ042-051>053-060>062-070>072-077>081-240000-
  SOUTHWEST OHIO

CITY           SKY/WX    TMP DP  RH WIND       PRES   REMARKS
CINC-COVINGTON LGT RAIN  54  51  90 E14       30.06F
CINC-LUNKEN    CLOUDY    56  53  90 E9        30.09F
HAMILTON       LGT RAIN  55  51  86 E14       30.10F
DAYTON         NOT AVBL
WRIGHT-PAT AFB NOT AVBL
DAYTON GENERAL LGT RAIN  54  49  83 E10G21    30.10F
WILMINGTON     CLOUDY    52  50  93 E13G21    30.11F
$$

OHZ036-037-039>041-045>050-054>059-063>069-073>076-082>088-240000-
  CENTRAL AND SOUTHEAST OHIO

CITY           SKY/WX    TMP DP  RH WIND       PRES   REMARKS
COLUMBUS       LGT RAIN  55  47  74 E8        30.18F
OSU AIRPORT    LGT RAIN  54  47  77 E10       30.17F
BOLTON FIELD   LGT RAIN  54  48  82 E9        30.17F
RICKENBACK AFB NOT AVBL
NEWARK         LGT RAIN  56  44  64 SE5       30.19F
MARION         CLOUDY    56  43  61 S21       30.18F
LANCASTER      CLOUDY    55  45  68 E15G22    30.18F
ZANESVILLE     CLOUDY    58  41  53 S10G20    30.20
NEW PHILLY     CLOUDY    64  34  32 CALM      30.18R
$$




USA.gov is the U.S. government's official web portal to all federal, state and local government web resources and services.